Location: Celina Division
(33.3022°N, 96.7580°W)
Time: 07:38:51
(UTC+00:00)

Meteor 2-6 Rocket - Pass Details

Date: 08 December 2021
Orbit: 805 x 915 km, 81.3° (Epoch: 25 January)

Event Time Altitude Azimuth Distance (km) Brightness Sun altitude
Rises 23:41:21 0° 174° (S) 3,483 7.7 -4.9°
Reaches altitude 10° 23:43:53 10° 170° (S) 2,533 6.9 -5.4°
Maximum altitude 23:49:27 54° 94° (E) 1,047 4.4 -6.5°
Drops below altitude 10° 23:54:54 10° 19° (NNE) 2,474 6.3 -7.5°
Sets 23:57:20 0° 14° (NNE) 3,397 7.0 -8.0°
